Flag for Canada Weather past 2 weeks in Fredericton, New Brunswick, Canada

Now
79 °F

Passing clouds.


Feels Like: 79 °F
Forecast: 59 / 75 °F
Wind: 9 mph from West

Location: Fredericton

Current Time: Aug 27, 2015 at 5:28:15 PM

Latest Report: Aug 27, 2015 at 5:00 PM


Visibility: 9 mi

Pressure: 29.81 "Hg

Humidity: 45%

Dew point: 55 °F

Location of FrederictonLocation

Historic Weather in Fredericton — Graph

°F

Fredericton temperature yesterday

Maximum temperature yesterday: 70 °F (at 4:00 PM)
Minimum temperature yesterday: 64 °F (at 3:00 AM)
Average temperature yesterday: 66 °F

Past Weeks' High & Low Weather Summary

 TemperatureHumidityPressure
High91 °F (Aug 18, 4:00 PM)100% (Aug 13, 6:00 AM)30.18 "Hg (Aug 13, 6:00 AM)
Low55 °F (Aug 14, 7:00 AM)35% (Aug 16, 3:00 PM)29.73 "Hg (Aug 12, 4:02 PM)
Average71 °F80%30.00 "Hg
* Reported Aug 12 4:02 PM — Aug 27 4:00 PM, Fredericton, Weather by CustomWeather, © 2015

Note: Actual official high and low records may vary slightly from our data, if they occured in-between our weather recording intervals... More about our weather records

Advertising

Fredericton weather history for previous 24 hours

 ConditionsComfort  
Time TempWeatherWind HumidityBarometerVisibility
4:00 PM
Thu, Aug 27
77 °FScattered clouds.8 mph47%29.82 "Hg9 mi
3:00 PM77 °FPassing clouds.8 mph54%29.83 "Hg9 mi
2:00 PM77 °FScattered clouds.8 mph51%29.83 "Hg9 mi
1:00 PM75 °FScattered clouds.5 mph65%29.85 "Hg9 mi
12:00 PM73 °FPassing clouds.7 mph69%29.86 "Hg9 mi
11:00 AM70 °FMostly cloudy.5 mph83%29.88 "Hg9 mi
10:00 AM66 °FLow clouds.3 mph88%29.88 "Hg9 mi
9:00 AM64 °FLow clouds.2 mph94%29.88 "Hg9 mi
8:02 AM64 °FFog.5 mph94%29.88 "Hg2 mi
7:00 AM64 °FLow clouds.3 mph94%29.87 "Hg9 mi
6:00 AM64 °FFog.2 mph94%29.87 "Hg4 mi
5:53 AM64 °FFog.No wind94%29.87 "Hg4 mi
5:00 AM64 °FOvercast.No wind94%29.88 "Hg9 mi
4:00 AM64 °FLow clouds.2 mph94%29.88 "Hg9 mi
3:52 AM64 °FLow clouds.No wind94%29.89 "Hg9 mi
3:03 AM64 °FMostly cloudy.5 mph94%29.89 "Hg9 mi
2:01 AM64 °FRain. Fog.6 mph94%29.93 "Hg5 mi
1:00 AM64 °FOvercast.3 mph94%29.92 "Hg9 mi
12:57 AM64 °FOvercast.3 mph94%29.93 "Hg9 mi
12:00 AM64 °FLight rain. Fog.3 mph94%29.93 "Hg5 mi
11:58 PM
Wed, Aug 26
64 °FLight rain. Fog.3 mph94%29.93 "Hg5 mi
11:00 PM64 °FLight rain. Mostly cloudy.5 mph94%29.95 "Hg9 mi
10:02 PM64 °FMostly cloudy.5 mph94%29.95 "Hg9 mi
9:00 PM66 °FThunderstorms. Mostly cloudy.6 mph94%29.94 "Hg9 mi
8:03 PM66 °FOvercast.7 mph94%29.94 "Hg9 mi
7:00 PM66 °FMostly cloudy.7 mph94%29.96 "Hg9 mi
6:50 PM68 °FCloudy.7 mph88%29.96 "Hg9 mi
6:00 PM68 °FLight rain. Mostly cloudy.6 mph94%29.96 "Hg8 mi
5:56 PM68 °FLight rain. Mostly cloudy.6 mph94%29.97 "Hg7 mi
5:04 PM68 °FHeavy rain. Mostly cloudy.8 mph94%29.97 "Hg7 mi
Weather by CustomWeather, © 2015

See weather overviewHow to use our weather pages